Location: Niedergestelen
(46.3129°N, 7.7822°E)
Time: 06:16:44
(UTC+00:00)

FENGYUN 1C DEB - Visible Passes

Search period start: 21 June 2021 00:00
Search period end: 01 July 2021 00:00
Orbit: 667 x 977 km, 99.0° (Epoch: 19 June)

Date Brightness Start Highest point End Pass type
(mag) Time Alt. Az. Time Alt. Az. Time Alt. Az.
21 Jun ? 01:27:17 10° SSE 01:32:03 75° ENE 01:37:21 10° NNW visible
22 Jun ? 01:07:17 10° SE 01:12:01 51° ENE 01:17:09 10° N visible
22 Jun ? 02:48:41 10° SW 02:52:29 22° W 02:56:32 10° NW visible
23 Jun ? 00:47:33 10° SE 00:52:02 35° ENE 00:56:52 10° N visible
23 Jun ? 02:27:50 11° SSW 02:32:08 33° W 02:36:55 10° NNW visible
24 Jun ? 00:28:04 10° ESE 00:32:08 25° ENE 00:36:27 10° N visible
24 Jun ? 02:07:24 12° S 02:11:51 50° W 02:17:06 10° NNW visible
25 Jun ? 00:08:53 10° E 00:12:18 18° NE 00:15:53 10° NNE visible
25 Jun ? 01:46:59 12° S 01:51:39 76° WSW 01:57:07 10° NNW visible
25 Jun ? 23:50:10 10° ENE 23:52:31 13° NE 23:54:57 10° NNE visible
26 Jun ? 01:26:33 10° SSE 01:31:32 74° ENE 01:37:02 10° NNW visible
27 Jun ? 01:06:36 10° SE 01:11:30 51° ENE 01:16:52 10° N visible
27 Jun ? 02:47:52 10° SW 02:51:56 24° W 02:56:18 10° NW visible
28 Jun ? 00:46:53 10° SE 00:51:32 35° ENE 00:56:34 10° N visible
28 Jun ? 02:27:05 11° SSW 02:31:35 35° W 02:36:39 10° NNW visible
29 Jun ? 00:27:24 10° ESE 00:31:39 26° ENE 00:36:10 10° N visible
29 Jun ? 02:06:40 12° S 02:11:19 53° W 02:16:48 10° NNW visible
30 Jun ? 00:08:12 10° E 00:11:49 19° NE 00:15:36 10° NNE visible
30 Jun ? 01:46:14 12° S 01:51:08 78° WSW 01:56:49 10° NNW visible
30 Jun ? 23:49:26 10° E 23:52:03 14° NE 23:54:44 10° NNE visible
